Date,TemperatureHighF,TemperatureAvgF,TemperatureLowF,DewpointHighF,DewpointAvgF,DewpointLowF,HumidityHigh,HumidityAvg,HumidityLow,PressureMaxIn,PressureMinIn,WindSpeedMaxMPH,WindSpeedAvgMPH,GustSpeedMaxMPH,PrecipitationSumIn
2013-1-12,76,68,59,66,61,57,99,80,62,30.18,30.10,4,1,11,0.00
2013-1-13,76,66,57,63,60,55,95,81,63,30.14,30.05,5,2,10,0.00
2013-1-14,73,66,62,64,61,57,91,85,73,30.14,30.06,5,2,8,0.01
2013-1-15,66,52,47,61,50,46,97,94,86,30.19,30.06,7,1,9,0.00
2013-1-16,51,47,44,50,46,43,97,97,96,30.07,30.00,3,0,6,0.17
2013-1-17,52,47,34,52,46,32,98,97,92,30.19,29.79,14,2,25,1.68
2013-1-18,49,38,30,36,30,25,97,76,42,30.55,30.19,7,1,11,0.10
2013-1-19,56,37,24,35,28,23,95,74,39,30.52,30.26,3,0,6,0.00
2013-1-20,65,52,38,39,34,29,79,52,35,30.15,30.03,5,1,8,0.00
2013-1-21,62,46,30,38,30,20,91,57,31,30.10,29.93,6,1,12,0.00
2013-1-22,44,37,29,24,13,5,60,38,22,30.30,30.01,6,1,10,0.00
2013-1-23,46,31,20,23,14,5,82,52,30,30.41,30.17,5,1,7,8.63
2013-1-24,47,37,26,35,16,6,82,43,29,30.53,30.10,12,3,17,0.00
2013-1-25,27,25,20,24,17,7,92,73,44,30.55,30.17,3,0,7,0.03
2013-1-26,43,31,24,37,28,21,95,90,77,30.41,30.15,2,0,4,0.03
2013-1-27,44,36,28,31,29,26,95,76,57,30.61,30.41,6,1,7,0.01
2013-1-28,52,43,33,49,38,29,94,83,68,30.52,30.28,3,1,7,0.01
2013-1-29,75,58,43,60,52,42,98,83,60,30.28,30.06,6,1,10,0.00
2013-1-30,76,67,52,65,61,50,94,83,61,30.06,29.47,14,5,23,0.61
2013-1-31,52,46,38,49,32,22,91,59,33,30.06,29.56,13,3,21,0.61
2013-2-1,43,38,26,31,17,7,62,45,24,30.40,29.95,14,2,21,0.00
2013-2-2,50,35,20,36,20,10,83,56,27,30.44,30.07,11,2,18,0.00
2013-2-3,55,43,34,36,31,24,93,64,33,30.07,29.88,6,1,15,0.00
2013-2-4,51,39,27,31,26,22,83,62,42,30.18,30.03,4,1,6,0.00
2013-2-5,66,56,47,45,41,34,83,59,41,30.02,29.90,10,1,13,0.00
2013-2-6,66,50,33,46,34,27,97,61,24,30.25,30.00,5,0,9,0.00
2013-2-7,47,43,41,41,36,27,95,77,50,30.30,29.98,10,2,13,0.01
2013-2-8,61,47,39,50,40,31,95,80,57,30.12,29.87,7,2,14,0.00
2013-2-9,58,43,31,32,26,20,84,54,24,30.36,30.12,6,1,9,0.00
2013-2-10,60,44,30,48,31,22,94,63,27,30.48,30.21,7,1,10,0.02
2013-2-11,63,58,50,60,56,48,96,92,85,30.22,29.94,10,3,12,0.00
2013-2-12,62,53,46,50,42,30,96,69,31,30.12,29.93,4,0,7,0.01
2013-2-13,50,47,42,48,45,40,97,94,87,29.96,29.67,5,0,16,0.05
2013-2-14,53,42,33,40,35,31,96,79,50,30.10,29.89,3,0,8,0.00
2013-2-15,64,46,32,44,35,30,96,70,31,30.12,29.95,5,1,8,0.00
2013-2-16,47,38,29,38,34,25,95,85,70,30.01,29.85,4,1,11,0.02
2013-2-17,43,32,24,25,18,13,89,60,32,30.31,30.01,10,1,19,0.00
2013-2-18,57,38,21,30,23,15,87,58,32,30.43,30.25,5,2,8,0.00
2013-2-19,49,42,35,47,37,27,96,85,64,30.26,29.91,7,1,14,0.14
2013-2-20,56,42,29,35,24,18,86,51,26,30.15,30.03,5,0,8,0.00
2013-2-21,58,42,27,32,22,16,79,48,26,30.28,30.13,4,0,7,0.00
2013-2-22,46,39,37,37,35,27,96,88,47,30.34,30.14,8,1,11,0.06
2013-2-23,44,40,37,42,39,36,97,96,95,30.16,29.87,3,0,6,0.00
2013-2-24,49,44,43,46,43,42,97,97,88,30.00,29.86,3,0,7,0.00
2013-2-25,43,41,38,30,28,27,71,61,54,30.21,30.10,7,2,13,0.00
2013-2-26,55,42,35,54,39,27,98,91,62,30.11,29.57,9,2,14,0.76
2013-2-27,58,44,36,43,39,34,97,85,55,29.84,29.68,4,1,9,0.01
2013-2-28,52,44,35,31,29,27,74,57,41,29.91,29.79,7,1,13,0.00
2013-3-1,50,41,30,34,30,26,84,67,49,29.96,29.88,5,0,9,0.00
2013-3-2,47,40,32,39,33,24,90,78,62,29.97,29.85,5,1,13,0.01
2013-3-3,48,36,26,24,22,19,87,59,37,30.04,29.91,9,1,13,0.00
2013-3-4,55,39,25,25,20,17,76,49,23,30.18,30.04,9,1,12,0.00
2013-3-5,57,47,38,52,39,24,96,74,49,30.10,29.61,5,1,14,0.02
2013-3-6,52,43,35,48,30,24,95,62,40,30.13,29.60,17,3,24,0.00
2013-3-7,55,42,31,33,29,26,83,62,41,30.29,30.13,9,2,11,0.00
2013-3-8,57,43,29,30,26,23,79,54,30,30.35,30.22,13,2,14,0.00
2013-3-9,64,48,32,36,31,26,79,54,33,30.37,30.25,6,1,9,0.00
2013-3-10,70,51,34,41,36,31,91,60,28,30.33,30.19,6,1,8,0.00
2013-3-11,72,55,40,55,42,26,86,63,47,30.23,29.88,13,2,13,0.01
2013-3-12,73,61,48,61,51,33,96,72,42,29.98,29.77,7,2,15,0.29
2013-3-13,61,48,36,36,29,20,86,52,27,30.17,29.98,9,2,18,0.00
2013-3-14,54,42,29,24,21,18,68,45,24,30.31,30.17,10,2,12,0.00
2013-3-15,66,49,30,42,31,19,78,51,33,30.24,29.93,7,1,10,0.00
2013-3-16,81,67,55,51,45,40,61,47,31,29.93,29.72,7,3,14,0.00
2013-3-17,76,61,48,54,46,40,77,58,40,30.11,29.85,10,2,14,0.00
2013-3-18,48,44,41,43,41,39,95,90,77,30.16,29.87,9,2,12,0.43
2013-3-19,68,53,42,49,35,22,97,62,18,30.05,29.87,9,1,17,0.01
2013-3-20,58,48,42,30,21,16,58,34,21,30.14,29.79,6,1,7,0.00
2013-3-21,49,41,31,29,17,11,62,39,22,30.01,29.79,11,2,20,0.00
2013-3-22,54,39,26,30,20,13,74,48,27,30.13,30.00,6,1,12,0.00
2013-3-23,50,43,38,42,36,28,92,77,52,30.09,29.93,3,0,5,0.02
2013-3-24,42,41,39,41,39,37,95,94,91,29.96,29.58,8,2,16,0.86
2013-3-25,51,42,37,41,32,22,97,71,37,29.91,29.58,12,2,21,0.04
2013-3-26,50,40,30,30,27,24,80,60,41,30.20,29.90,8,1,15,0.00
2013-3-27,55,42,30,30,26,22,80,55,30,30.28,30.19,9,1,18,0.00
2013-3-28,57,44,32,28,24,21,72,48,27,30.33,30.21,11,1,15,0.00
2013-3-29,63,48,31,35,28,24,79,49,25,30.38,30.20,7,1,11,0.00
2013-3-30,67,55,46,50,45,34,95,72,47,30.24,30.09,4,1,7,0.21
2013-3-31,72,59,50,59,52,47,96,79,54,30.09,29.81,9,2,14,0.26
2013-4-1,76,63,55,56,48,38,96,63,27,29.96,29.84,8,1,11,0.05
2013-4-2,65,52,40,41,37,33,84,60,32,30.17,29.96,7,1,8,0.00
2013-4-3,62,57,50,36,29,25,56,35,25,30.28,30.20,5,1,16,0.00
2013-4-4,51,43,38,39,34,25,95,75,44,30.31,29.97,9,2,15,0.74
2013-4-5,65,49,38,49,41,37,96,77,48,30.05,29.93,5,1,10,0.01
2013-4-6,71,54,40,42,38,35,86,59,31,30.25,30.05,7,1,13,0.00
2013-4-7,63,55,44,46,44,41,88,67,54,30.29,30.26,3,1,8,0.00
2013-4-8,74,68,66,56,54,53,71,60,51,30.11,30.07,6,2,12,0.00
2013-4-9,86,70,54,63,58,52,94,68,43,30.20,30.08,6,1,11,0.00
2013-4-10,87,73,60,65,60,57,92,66,42,30.12,29.96,6,2,12,0.00
2013-4-11,83,71,59,67,62,57,96,75,53,29.99,29.77,6,2,10,0.00
2013-4-12,83,71,62,69,60,45,96,71,33,29.81,29.63,11,2,17,0.50
2013-4-13,76,63,48,49,43,39,76,50,27,30.02,29.81,4,1,9,0.00
2013-4-14,79,62,45,54,47,42,93,61,28,30.10,29.99,4,0,7,0.00
2013-4-15,73,66,61,61,59,54,87,77,65,30.19,29.98,7,0,9,0.00
2013-4-16,65,61,58,60,58,56,95,89,84,30.25,30.19,1,0,2,0.00
2013-4-17,86,77,57,67,64,56,96,65,42,30.25,30.09,5,1,8,0.09
2013-4-18,68,64,61,65,62,59,94,92,90,30.14,30.10,2,0,4,0.04
2013-4-19,82,71,55,71,65,51,95,82,66,29.91,29.75,8,2,16,0.35
2013-4-20,60,51,45,53,46,36,93,82,41,30.17,29.88,3,0,9,0.01
2013-4-21,66,58,41,46,42,39,96,58,43,30.46,30.37,8,1,15,0.00
2013-4-22,66,53,40,43,36,29,82,56,27,30.44,30.23,9,1,13,0.00
2013-4-23,68,57,50,56,49,43,89,75,62,30.29,30.13,4,1,9,0.00
2013-4-24,78,63,49,62,55,47,96,78,53,30.18,30.01,6,0,16,0.00
2013-4-25,73,63,50,59,48,40,89,61,33,30.27,30.04,5,1,9,0.00
2013-4-26,75,60,43,50,41,35,87,54,26,30.45,30.27,7,0,8,0.00
2013-4-27,69,59,54,57,52,47,96,79,51,30.38,30.26,2,0,4,0.16
2013-4-28,62,58,55,61,56,53,97,95,92,30.27,30.07,4,0,10,1.72
2013-4-29,74,63,57,65,60,56,98,91,68,30.08,29.95,2,0,4,0.23
2013-4-30,72,64,57,63,60,55,97,89,71,30.17,29.99,7,0,10,0.01
2013-5-1,65,59,52,59,56,50,97,90,81,30.29,30.16,9,1,11,0.00
2013-5-2,65,60,57,60,58,56,97,92,83,30.31,30.23,6,1,10,0.03
2013-5-3,70,64,57,57,54,44,84,70,60,30.23,30.12,8,2,13,0.00
2013-5-4,65,56,49,55,49,44,89,78,63,30.15,30.01,7,2,14,0.00
2013-5-5,60,56,52,59,53,49,97,91,81,30.05,29.89,9,2,15,0.30
2013-5-6,75,64,55,64,58,50,98,81,54,29.90,29.81,6,1,11,0.54
2013-5-7,72,59,48,56,52,46,95,78,54,29.96,29.86,5,0,11,0.08
2013-5-8,75,63,53,64,58,52,98,85,57,30.02,29.93,3,0,7,0.05
2013-5-9,83,68,54,63,58,53,98,74,41,30.09,29.99,5,0,7,0.00
2013-5-10,84,71,56,68,62,54,96,74,47,30.07,29.95,6,0,9,0.00
2013-5-11,82,72,63,69,64,59,94,76,56,29.96,29.80,5,0,11,0.11
2013-5-12,75,66,55,62,54,40,96,68,42,30.04,29.82,6,1,14,0.01
2013-5-13,70,58,44,44,40,35,90,54,31,30.18,30.04,6,1,12,0.00
2013-5-14,74,59,41,49,43,36,90,58,33,30.28,30.09,3,0,11,0.00
2013-5-15,90,70,55,67,57,46,84,65,42,30.09,29.93,6,0,9,0.00
2013-5-16,85,74,63,67,62,57,83,68,41,30.02,29.92,4,0,7,0.00
2013-5-17,88,75,63,69,64,60,91,71,46,30.08,30.00,3,0,7,0.00
2013-5-18,80,70,65,68,64,61,96,83,63,30.13,30.06,3,0,6,0.07
2013-5-19,75,68,65,70,67,64,98,95,86,30.13,30.05,3,0,9,0.59
2013-5-20,80,72,67,74,69,67,98,92,74,30.12,30.01,2,0,5,0.24
2013-5-21,85,72,66,75,68,64,98,89,69,30.06,29.95,3,0,9,0.00
2013-5-22,86,74,66,72,69,65,98,84,57,30.03,29.89,4,0,9,0.09
2013-5-23,80,71,65,71,67,64,98,87,71,29.98,29.83,3,0,13,0.15
2013-5-24,73,66,54,64,54,42,98,71,40,30.20,29.85,10,1,19,0.14
2013-5-25,77,62,45,53,46,40,90,59,30,30.33,30.15,7,0,7,0.00
2013-5-26,76,64,55,55,49,44,82,60,38,30.29,30.18,3,0,7,0.00
2013-5-27,84,69,52,64,57,50,96,69,39,30.29,30.16,4,0,8,0.00
2013-5-28,86,74,62,68,65,60,97,75,52,30.25,30.14,4,0,11,0.00
2013-5-29,86,74,61,68,64,59,95,73,49,30.25,30.15,3,0,7,0.00
2013-5-30,87,74,61,68,64,60,97,74,46,30.29,30.16,3,0,6,0.00
2013-5-31,88,77,65,71,68,64,97,75,52,30.24,30.10,3,0,8,0.00
2013-6-1,88,79,67,71,67,64,96,70,47,30.14,30.01,6,1,9,0.00
2013-6-2,88,77,69,71,68,66,95,76,49,30.07,29.88,5,1,10,0.52
2013-6-3,84,74,67,74,70,65,98,86,61,29.96,29.83,5,0,8,0.24
2013-6-4,85,73,64,72,67,63,98,82,61,30.07,29.94,4,0,8,0.00
2013-6-5,82,72,68,71,68,65,97,87,68,30.10,29.98,5,0,7,0.24
2013-6-6,76,72,70,74,71,69,98,96,89,29.99,29.81,4,0,11,0.16
2013-6-7,79,71,67,75,69,66,98,95,81,29.86,29.59,6,1,11,0.02
2013-6-8,85,74,67,74,70,66,98,87,61,30.09,29.83,6,0,8,0.02
2013-6-9,89,75,67,75,70,66,98,87,58,30.15,30.06,3,0,12,0.02
2013-6-10,84,74,69,77,72,68,98,93,74,30.09,29.90,6,1,11,0.02
2013-6-11,86,76,68,74,69,66,98,80,52,29.98,29.92,8,1,10,0.01
2013-6-12,91,79,65,77,71,64,97,79,53,30.01,29.87,5,0,7,0.02
2013-6-13,94,80,67,77,72,63,97,80,49,29.87,29.65,9,1,23,0.01
2013-6-14,83,72,60,68,62,58,97,74,44,30.02,29.76,7,1,17,0.01
2013-6-15,85,72,59,67,62,58,98,74,46,30.14,30.02,4,0,8,0.01
2013-6-16,86,76,63,72,67,61,94,75,54,30.15,30.01,5,0,12,0.01
2013-6-17,86,75,69,75,69,65,96,82,63,30.04,29.92,5,0,21,0.01
2013-6-18,87,76,69,74,71,68,97,87,63,29.98,29.77,5,0,12,0.00
2013-6-19,84,75,69,70,68,64,97,80,55,30.11,29.88,4,0,8,0.01
2013-6-20,84,74,65,69,66,64,97,79,56,30.22,30.10,6,0,10,0.01
2013-6-21,84,72,61,67,62,59,94,73,50,30.26,30.17,7,1,10,0.01
2013-6-22,84,73,63,73,67,59,95,82,66,30.21,30.11,5,0,7,0.04
2013-6-23,87,75,68,76,71,67,97,88,64,30.21,30.12,3,0,6,0.03
2013-6-24,88,74,69,78,71,68,98,91,65,30.21,30.11,4,0,6,0.01
2013-6-25,92,78,69,76,72,68,98,82,54,30.14,30.00,5,0,11,0.01
2013-6-26,91,78,69,76,71,68,97,83,56,30.04,29.90,5,0,8,0.01
2013-6-27,88,77,68,79,73,67,98,90,68,29.95,29.73,5,0,9,0.01
2013-6-28,91,80,71,79,73,69,99,82,56,29.75,29.59,7,0,11,0.00
2013-6-29,87,77,69,75,71,68,98,85,59,29.72,29.61,3,0,8,0.01
2013-6-30,85,75,68,76,72,67,97,90,70,29.84,29.69,3,0,11,0.01
2013-7-1,82,74,68,74,71,67,98,91,76,29.99,29.83,5,0,7,0.00
2013-7-2,78,73,72,74,72,70,98,95,86,30.15,29.98,5,0,10,0.00
2013-7-3,82,76,73,78,74,72,99,94,80,30.22,30.13,3,0,8,0.00
2013-7-4,88,78,73,77,74,72,98,87,64,30.25,30.15,5,0,11,0.00
2013-7-5,88,76,72,78,74,71,98,93,70,30.25,30.17,4,0,10,0.01
2013-7-6,88,76,68,78,73,67,99,92,67,30.25,30.11,2,0,8,0.00
2013-7-7,88,78,72,78,74,71,99,89,67,30.18,30.06,5,0,7,0.01
2013-7-8,86,77,72,78,74,71,99,90,69,30.18,30.09,3,0,7,0.01
2013-7-9,89,79,73,79,74,72,98,87,68,30.16,30.05,6,0,8,0.00
2013-7-10,90,78,72,80,74,71,98,89,68,30.11,29.95,5,0,9,0.01
2013-7-11,81,74,71,77,73,70,98,96,84,29.97,29.88,2,0,7,0.01
2013-7-12,82,74,71,76,72,69,99,93,77,30.00,29.87,4,0,10,0.00
2013-7-13,82,74,70,76,72,69,97,92,81,30.11,29.99,6,0,8,0.01
2013-7-14,88,78,73,77,74,71,98,89,62,30.27,30.10,4,0,12,0.01
2013-7-15,89,78,70,77,73,70,99,87,62,30.31,30.23,4,0,7,0.00
2013-7-16,92,81,71,78,74,70,99,81,56,30.30,30.19,4,0,6,0.01
2013-7-17,91,78,74,81,74,72,96,90,70,30.22,30.11,5,0,10,0.00
2013-7-18,93,84,71,80,76,70,98,78,61,30.15,30.04,2,0,6,0.00
2013-7-19,91,81,74,79,75,73,98,83,61,30.11,29.98,4,0,8,0.01
2013-7-20,89,79,74,78,74,72,95,86,66,30.04,29.92,5,0,7,0.00
2013-7-21,90,77,72,78,73,70,97,88,65,30.01,29.89,4,0,14,0.00
2013-7-22,86,77,71,77,73,70,99,90,72,29.98,29.84,4,0,7,0.01
2013-7-23,89,79,73,78,74,72,97,84,62,29.86,29.75,6,0,7,0.00
2013-7-24,93,79,70,77,73,68,98,82,53,29.87,29.73,4,0,7,0.00
2013-7-25,83,74,69,73,70,67,97,86,70,30.03,29.80,5,0,8,0.00
2013-7-26,87,75,66,72,69,65,98,84,56,30.11,30.01,4,0,5,0.00
2013-7-27,83,73,69,76,71,67,98,94,77,30.04,29.93,5,0,13,0.01
2013-7-28,87,77,70,76,72,70,98,88,64,29.99,29.92,3,0,15,0.00
2013-7-29,86,76,70,73,71,68,98,85,59,30.15,29.99,4,0,7,0.00
2013-7-31,84,77,71,76,73,70,97,86,71,30.15,29.98,4,0,8,0.00
2013-8-1,86,76,71,78,73,70,98,91,69,30.00,29.88,2,0,4,0.01
2013-8-2,89,78,69,78,72,68,99,85,65,30.02,29.92,4,0,6,0.00
2013-8-3,90,80,73,79,74,70,98,85,61,30.02,29.92,5,0,7,0.00
2013-8-4,87,78,70,74,70,66,97,78,53,29.98,29.91,4,0,12,0.00
2013-8-6,76,72,69,71,69,67,97,92,83,30.07,30.03,4,0,10,0.00
2013-8-7,87,77,70,75,72,68,97,86,55,30.10,30.01,4,0,7,0.00
2013-8-8,89,78,71,77,73,69,97,85,64,30.07,29.99,3,0,5,0.00
2013-8-9,91,81,73,79,75,72,97,85,65,30.07,29.99,4,0,9,0.00
2013-8-10,92,80,72,80,75,71,97,86,64,30.10,30.01,4,0,12,0.00
2013-8-11,91,80,70,80,74,70,99,85,63,30.12,30.02,4,0,6,0.00
2013-8-12,94,81,72,79,74,71,98,81,52,30.06,29.93,4,0,6,0.00
2013-8-13,88,78,71,80,74,70,98,89,71,29.97,29.79,4,0,11,0.00
2013-8-14,77,72,65,72,68,62,98,87,66,30.08,29.85,3,0,8,0.00
2013-8-15,77,67,60,64,61,58,96,82,56,30.15,30.06,5,0,10,0.00
2013-8-16,68,64,58,64,61,57,96,91,79,30.17,30.08,5,0,7,0.00
2013-8-17,68,65,62,67,64,60,98,97,93,30.18,30.12,3,0,8,0.00
2013-8-18,85,73,66,75,70,65,99,91,68,30.22,30.12,3,0,5,0.00
2013-8-19,76,71,68,72,70,67,98,95,85,30.19,30.09,3,0,5,0.00
2013-8-20,83,73,66,75,71,66,99,92,75,30.19,30.10,2,0,3,0.01
2013-8-21,88,77,71,78,73,70,99,90,71,30.23,30.13,4,0,8,0.00
2013-8-23,89,80,71,78,73,69,98,80,58,30.07,29.94,4,0,7,0.00
2013-8-24,83,73,64,69,64,62,95,78,52,30.29,30.07,6,1,10,0.00
2013-8-25,82,69,59,66,62,58,98,79,53,30.39,30.28,4,0,9,0.00
2013-8-26,83,68,55,67,61,54,98,80,52,30.33,30.13,3,0,5,0.00
2013-8-27,89,74,63,74,67,60,95,80,57,30.15,29.98,6,0,9,0.00
2013-8-28,88,78,69,78,73,68,97,85,67,30.01,29.91,2,0,4,0.00
2013-8-29,88,77,74,78,73,71,94,89,66,29.98,29.88,3,0,7,0.00
2013-8-30,89,77,70,72,69,66,97,78,48,30.06,29.94,4,0,6,0.00
2013-8-31,90,77,67,78,72,66,98,85,64,29.97,29.86,4,0,6,0.00
2013-9-1,90,78,70,79,73,69,98,86,64,29.91,29.78,10,1,16,0.00
2013-9-2,86,76,70,78,74,69,99,91,70,29.92,29.81,2,0,4,0.00
2013-9-3,90,78,72,77,73,70,98,86,60,29.95,29.81,5,0,7,0.00
2013-9-4,88,75,64,72,67,62,96,79,53,30.09,29.95,4,0,7,0.00
2013-9-5,88,74,65,73,68,64,98,82,52,30.12,30.03,4,0,7,0.00
2013-9-6,85,72,64,65,63,60,95,74,46,30.18,30.07,5,0,10,0.00
2013-9-7,85,71,60,69,64,58,97,79,53,30.14,29.98,3,0,6,0.00
2013-9-8,88,75,64,72,67,63,98,78,48,29.99,29.91,4,0,6,0.00
2013-9-9,91,76,65,70,68,64,98,77,48,30.14,29.98,5,0,7,0.00
2013-9-10,90,76,65,74,69,64,98,80,50,30.24,30.14,3,0,5,0.00
2013-9-11,90,76,65,73,69,64,98,79,50,30.22,30.08,3,0,5,0.00
2013-9-12,90,77,67,76,70,65,94,80,55,30.08,29.83,5,0,6,0.00
2013-9-13,88,78,66,67,62,56,92,60,42,29.90,29.77,5,1,9,0.00
2013-9-14,79,68,58,61,56,52,87,68,50,30.12,29.90,7,1,14,0.00
2013-9-15,82,69,56,68,62,54,93,80,58,30.22,30.10,4,0,8,0.00
2013-9-16,89,77,67,73,67,62,96,75,41,30.15,30.03,4,0,8,0.00
2013-9-17,80,70,60,65,58,54,81,66,45,30.30,30.15,9,1,10,0.00
2013-9-18,77,63,52,58,55,50,95,77,50,30.31,30.17,7,0,10,0.00
2013-9-19,81,65,55,64,58,53,95,81,53,30.20,30.09,4,0,5,0.00
2013-9-20,87,73,62,70,65,60,95,79,54,30.09,29.92,4,0,8,0.00
2013-9-21,71,67,64,68,65,62,96,94,90,29.94,29.86,1,0,2,0.00
2013-9-22,80,68,59,62,59,57,93,73,51,29.90,29.79,3,0,11,0.03
2013-9-23,75,64,55,61,57,54,97,81,55,30.07,29.90,5,0,6,0.00
2013-9-24,80,64,54,63,58,53,98,82,52,30.10,29.95,4,0,6,0.00
2013-9-25,71,64,59,65,61,57,97,91,75,29.95,29.87,3,0,5,0.00
2013-9-26,77,66,57,63,59,53,98,80,52,30.03,29.88,7,0,10,0.00
2013-9-27,76,62,51,61,56,50,98,80,52,30.18,30.03,7,0,11,0.00
2013-9-28,74,61,51,58,54,50,98,79,51,30.26,30.17,7,1,13,0.00
2013-9-29,74,62,53,61,56,51,95,81,55,30.18,30.04,5,0,8,0.00
2013-9-30,77,62,52,62,56,50,97,82,50,30.12,30.01,5,0,5,0.00
2013-10-1,82,66,53,65,58,52,98,80,49,30.15,30.04,3,0,7,0.00
2013-10-2,86,69,56,67,61,55,98,79,47,30.16,30.06,3,0,6,0.00
2013-10-3,85,70,60,69,63,58,98,79,49,30.14,30.06,3,0,5,0.00
2013-10-4,87,71,59,69,64,58,98,79,48,30.15,30.06,3,0,5,0.00
2013-10-5,88,73,60,71,64,59,98,78,46,30.13,30.03,2,0,4,0.00
2013-10-6,85,72,60,71,65,58,98,81,55,30.07,29.91,4,0,7,0.00
2013-10-7,78,71,62,74,69,60,97,93,82,29.99,29.83,5,0,8,0.00
2013-10-8,63,60,57,60,53,49,90,78,69,30.20,29.99,7,1,11,0.00
2013-10-9,72,61,50,58,53,47,90,75,58,30.21,30.11,6,1,12,0.00
2013-10-10,68,62,53,62,56,49,90,84,76,30.11,29.97,5,0,9,0.00
2013-10-11,78,68,63,64,62,60,92,81,57,30.00,29.92,4,0,8,0.00
2013-10-12,76,67,59,65,62,57,98,85,63,30.09,29.96,3,0,8,0.00
2013-10-13,70,66,63,65,63,61,94,89,81,30.21,30.08,6,0,9,0.00
2013-10-14,67,64,61,63,61,59,97,91,84,30.24,30.17,7,0,10,0.00
2013-10-15,76,64,56,59,56,52,96,76,44,30.20,30.05,7,0,11,0.00
2013-10-16,76,65,55,64,59,54,97,82,59,30.08,29.95,3,0,5,0.00
2013-10-17,74,66,62,67,63,60,97,90,73,29.98,29.87,4,0,7,0.00
2013-10-18,67,62,57,65,59,55,98,88,71,30.04,29.89,5,0,7,0.00
2013-10-19,72,62,56,64,58,53,97,86,67,29.98,29.84,3,0,7,0.00
2013-10-20,68,56,46,54,47,42,96,76,43,30.12,29.92,4,0,9,0.00
2013-10-21,71,55,40,54,48,38,97,79,48,30.18,30.02,5,0,6,0.00
2013-10-22,67,59,54,61,56,51,97,90,80,30.04,29.82,1,0,4,0.00
2013-10-23,69,59,44,59,47,33,98,68,32,30.04,29.73,8,1,18,0.00
2013-10-24,62,48,34,43,37,32,91,70,42,30.21,30.04,5,0,10,0.00
2013-10-25,55,46,37,43,35,30,88,67,43,30.40,30.19,5,0,13,0.00
2013-10-26,60,44,29,37,32,27,95,68,37,30.40,30.12,5,0,8,0.07
2013-10-27,70,54,40,49,43,36,90,67,45,30.16,30.07,6,0,8,0.00
2013-10-28,66,58,47,59,54,45,94,88,74,30.27,30.20,1,0,3,0.00
2013-10-29,74,65,49,59,56,48,98,74,52,30.36,30.25,4,0,5,0.00
2013-10-30,79,68,49,61,57,48,97,70,51,30.31,30.16,5,0,10,0.00
2013-10-31,74,69,54,63,59,52,95,72,59,30.18,29.96,5,0,8,0.00
2013-11-1,72,65,58,67,63,58,97,92,82,29.82,29.68,5,0,11,0.00
2013-11-2,71,59,49,59,53,45,98,82,43,29.95,29.73,5,0,14,0.00
2013-11-3,62,56,42,45,40,38,93,57,43,30.34,30.20,7,1,11,0.00
2013-11-4,59,49,34,40,36,32,96,63,38,30.54,30.47,5,1,11,0.00
2013-11-5,58,48,35,49,42,31,91,79,66,30.56,30.44,4,0,10,0.00
2013-11-6,73,58,45,58,52,44,97,80,58,30.44,30.12,3,0,7,0.00
2013-11-7,70,58,45,62,51,35,98,80,49,30.14,29.95,7,0,11,0.00
2013-11-8,59,47,36,36,31,26,82,55,28,30.35,30.14,6,1,10,0.00
2013-11-9,62,46,30,40,33,27,93,64,33,30.41,30.22,5,0,7,0.01
2013-11-10,73,55,38,42,37,31,86,54,27,30.25,30.11,6,0,11,0.00
2013-11-11,61,48,36,34,31,28,80,53,32,30.37,30.17,7,0,10,0.00
2013-11-12,66,44,31,42,35,26,94,73,36,30.47,30.08,10,2,21,0.02
2013-11-13,46,34,25,26,23,20,87,66,39,30.58,30.46,6,1,10,0.00
2013-11-14,58,39,24,31,25,21,89,62,30,30.52,30.37,3,0,7,0.00
2013-11-15,60,46,30,48,36,24,87,72,48,30.39,30.22,3,0,5,0.00
2013-11-16,69,56,48,59,53,46,97,88,70,30.29,30.20,3,0,5,0.00
2013-11-17,73,61,51,65,58,50,98,91,68,30.22,29.92,5,1,8,0.00
2013-11-18,79,68,53,67,56,34,97,71,33,29.98,29.82,9,1,15,0.06
2013-11-19,57,49,42,34,30,28,66,49,33,30.29,29.98,11,1,16,0.00
2013-11-20,55,46,35,38,34,28,77,63,49,30.46,30.29,8,1,12,0.00
2013-11-21,62,52,42,50,44,35,80,73,61,30.50,30.38,5,1,9,0.00
2013-11-22,70,60,53,60,54,47,91,80,69,30.40,30.11,4,0,7,0.00
2013-11-23,62,57,43,59,47,18,97,71,33,30.21,30.06,9,1,12,0.00
2013-11-24,43,35,26,25,13,6,55,41,25,30.56,30.21,11,2,14,0.00
2013-11-25,44,33,19,17,12,8,76,44,24,30.62,30.38,4,0,8,0.00
2013-11-26,63,42,33,63,35,15,99,81,37,30.38,29.62,8,1,22,1.29
2013-11-27,47,40,28,46,36,20,98,84,62,30.23,29.54,11,2,18,0.36
2013-11-28,46,33,22,27,22,17,89,66,41,30.52,30.23,4,0,7,0.00
2013-11-29,54,38,24,31,26,22,93,67,36,30.63,30.50,6,0,11,0.00
2013-11-30,49,37,27,31,28,23,87,70,49,30.66,30.40,8,1,10,0.00
2013-12-1,56,43,30,43,36,27,91,76,55,30.40,30.05,3,0,5,0.00
2013-12-2,59,47,37,44,40,35,95,77,52,30.05,29.84,4,0,10,0.00
2013-12-3,63,52,42,53,46,39,91,82,66,29.99,29.88,4,0,6,0.00
2013-12-4,65,58,53,60,56,50,98,94,84,30.11,29.97,4,0,5,0.00
2013-12-5,67,63,58,65,62,58,99,97,91,30.14,30.04,5,1,9,0.01
2013-12-6,79,70,64,67,64,61,98,83,65,30.09,29.98,11,4,14,0.00
2013-12-7,70,55,46,65,51,39,96,87,76,30.44,30.00,14,3,17,0.01
2013-12-8,46,39,35,39,36,34,96,88,72,30.45,30.31,7,2,12,0.01
2013-12-9,47,41,35,47,40,34,98,97,96,30.31,30.09,2,0,4,0.02
2013-12-10,52,46,33,49,43,28,98,89,71,30.36,29.92,5,0,11,0.03
2013-12-11,51,36,25,35,29,24,96,76,45,30.49,30.33,3,0,5,0.00
2013-12-12,48,36,27,28,24,20,92,67,34,30.46,30.31,6,0,10,0.00
2013-12-13,54,37,22,34,26,19,91,68,37,30.43,30.30,6,0,7,0.00
2013-12-14,50,42,38,49,40,32,97,91,77,30.31,29.81,4,1,13,0.12
2013-12-15,55,44,35,46,38,29,98,82,53,30.13,29.75,6,1,12,0.00
2013-12-16,59,43,30,39,33,27,91,71,43,30.22,30.12,4,1,8,0.00
2013-12-17,65,50,36,41,36,31,82,61,39,30.16,29.95,9,1,15,0.00
2013-12-18,54,43,33,35,24,18,72,49,25,30.32,30.06,5,0,9,0.00
2013-12-19,64,45,28,33,28,23,85,56,24,30.36,30.25,7,1,9,0.00
2013-12-20,66,52,39,55,45,31,91,76,59,30.27,30.16,4,0,9,0.00
2013-12-21,74,61,49,65,57,47,96,87,69,30.17,30.03,8,2,16,0.00
2013-12-22,77,69,64,69,66,63,98,91,71,30.09,30.01,8,3,14,0.10
2013-12-23,65,60,48,65,59,42,99,96,80,30.18,30.01,7,1,11,0.16
2013-12-24,49,42,31,41,31,19,83,66,51,30.48,30.15,8,2,13,0.00
2013-12-25,41,31,22,26,18,14,81,59,35,30.59,30.43,4,1,8,0.00
2013-12-26,54,40,32,31,28,24,83,63,37,30.44,30.28,3,0,6,0.00
2013-12-27,52,39,28,29,26,23,86,62,35,30.50,30.39,4,0,6,0.00
2013-12-28,55,41,25,39,30,22,93,68,38,30.45,30.12,4,0,5,0.00
2013-12-29,55,47,42,51,45,36,98,94,67,30.12,29.79,5,1,10,0.11
2013-12-30,54,44,36,48,41,35,99,90,69,30.15,29.96,1,0,3,0.00
2013-12-31,51,44,36,43,35,28,96,74,42,30.39,30.11,4,0,9,0.00
2014-1-1,50,40,31,35,32,27,92,73,49,30.43,30.18,3,0,5,0.00
2014-1-2,50,44,38,47,41,33,97,90,75,30.18,29.66,12,0,14,0.01